#datint,netname,site,siteID,timestamp,IntT,BattV,AirT2,AirT,AirT_Avg,AirT_Max,AirT_Min,RH_Avg,RH_Max,RH_Min,EA_Avg,Td_Avg,Td_Max,Td_Min,WindS_Smp,WindS_Avg,WindD_Avg,WindD_SD,WindS_Max,ETo,ETr,SoilT4,SoilT8,SoilVWC8,SolarW_Avg,wetstate_Avg,wetT_Avg,Precip_accum,Precip_WPG,Precip_TB
15min,AgWx,beryljct,423,10APR2020:00:00:00,32.7,12.89,31.0,30.0,30.1,31.3,29.1,91,93,90,0.524,27.9,29.2,27.0,2.938,2.7,72,29,5.0,-0.00002,-0.00003,45.5,46.2,22,0,.,.,11.68,0.00,0.00
15min,AgWx,beryljct,423,10APR2020:00:15:00,32.1,12.88,31.6,31.1,30.7,31.1,30.1,93,94,92,0.546,28.8,29.3,28.2,1.447,2.2,224,33,3.3,-0.00003,-0.00004,45.3,46.2,22,0,.,.,11.68,0.00,0.00
15min,AgWx,beryljct,423,10APR2020:00:30:00,31.7,12.88,30.7,30.5,30.6,31.4,30.0,93,93,92,0.531,28.7,29.6,27.9,0.899,1.8,221,8.3,3.1,-0.00004,-0.00005,45.1,46.2,22,0,.,.,11.69,0.00,0.00
15min,AgWx,beryljct,423,10APR2020:00:45:00,31.3,12.87,30.8,30.6,30.7,30.9,30.4,93,93,92,0.532,28.8,29.0,28.5,2.061,1.1,212,13,2.5,-0.00005,-0.00007,45.0,46.2,22,0,.,.,11.69,0.00,0.00
15min,AgWx,beryljct,423,10APR2020:01:00:00,31.1,12.86,30.9,31.0,31.1,31.6,30.5,92,93,90,0.529,28.9,29.7,28.4,2.85,2.8,189,3.4,3.5,-0.00002,-0.00003,44.8,46.2,22,0,.,.,11.69,0.00,0.00
15min,AgWx,beryljct,423,10APR2020:01:15:00,31.1,12.84,29.8,29.4,30.0,30.9,29.4,92,93,90,0.512,27.9,28.4,27.4,1.995,2.3,189,0.9,3.1,-0.00003,-0.00003,44.6,46.1,22,0,.,.,11.69,0.00,0.00
15min,AgWx,beryljct,423,10APR2020:01:30:00,30.8,12.83,29.9,30.0,29.7,30.2,29.4,94,95,93,0.528,28.1,28.8,27.7,0,0.6,187,0.1,1.8,-0.00006,-0.00009,44.4,46.1,22,0,.,.,11.68,0.00,0.00
15min,AgWx,beryljct,423,10APR2020:01:45:00,30.6,12.83,30.3,29.7,29.6,30.1,29.3,94,94,93,0.523,28.0,28.5,27.5,1.556,1.6,132,6.2,2.3,-0.00004,-0.00006,44.3,46.0,22,0,.,.,11.69,0.01,0.00
15min,AgWx,beryljct,423,10APR2020:02:00:00,30.4,12.82,29.0,28.9,29.5,30.1,28.8,94,94,93,0.504,27.8,28.6,27.1,0.702,1.7,149,15,3.2,-0.00004,-0.00006,44.1,46.0,22,0,.,.,11.69,0.00,0.00
15min,AgWx,beryljct,423,10APR2020:02:15:00,30.0,12.81,29.8,29.5,29.3,29.8,28.8,95,95,94,0.521,27.9,28.6,27.2,0,0.2,164,0.0,0.8,-0.00007,-0.00011,44.0,46.0,22,0,.,.,11.69,0.00,0.00
15min,AgWx,beryljct,423,10APR2020:02:30:00,29.8,12.8,30.4,30.0,29.1,30.2,28.3,94,95,93,0.534,27.7,29.0,26.7,0.526,1.3,294,25,2.5,-0.00005,-0.00007,43.8,45.9,22,0,.,.,11.69,0.00,0.00
15min,AgWx,beryljct,423,10APR2020:02:45:00,29.6,12.8,29.5,29.1,29.6,30.0,29.1,94,95,93,0.507,28.0,28.7,27.3,0,0.8,317,10,2.2,-0.00006,-0.00009,43.7,45.8,22,0,.,.,11.69,0.00,0.00
15min,AgWx,beryljct,423,10APR2020:03:00:00,29.3,12.78,29.0,28.5,28.7,29.4,27.9,94,94,93,0.497,27.1,27.8,26.1,2.039,1.3,34,36,4.3,-0.00005,-0.00006,43.5,45.8,22,0,.,.,11.69,0.00,0.00
15min,AgWx,beryljct,423,10APR2020:03:15:00,28.9,12.76,28.0,27.3,27.8,28.5,27.1,94,95,93,0.479,26.3,27.0,25.5,0,0.6,79,1.0,2.5,-0.00006,-0.00009,43.4,45.7,22,0,.,.,11.69,0.00,0.00
15min,AgWx,beryljct,423,10APR2020:03:30:00,28.4,12.76,29.0,28.3,28.1,28.3,27.3,95,96,95,0.504,26.9,27.3,26.0,0,0.2,79,0.4,0.7,-0.00007,-0.00011,43.3,45.7,22,0,.,.,11.69,0.00,0.00
15min,AgWx,beryljct,423,10APR2020:03:45:00,28.1,12.76,29.0,28.2,28.3,28.7,27.8,96,96,95,0.502,27.2,27.7,26.6,0.965,0.3,122,12,1.7,-0.00007,-0.00011,43.1,45.6,22,0,.,.,11.69,0.00,0.00
15min,AgWx,beryljct,423,10APR2020:04:00:00,27.9,12.74,28.0,28.1,28.2,28.5,28.0,96,97,96,0.503,27.3,27.7,27.0,0.417,0.9,132,1.5,1.6,-0.00006,-0.00008,43.0,45.6,22,0,.,.,11.69,0.00,0.00
15min,AgWx,beryljct,423,10APR2020:04:15:00,27.8,12.74,29.1,28.1,28.0,28.3,27.6,96,97,96,0.499,27.0,27.5,26.5,0.482,0.9,202,13,2.0,-0.00006,-0.00008,42.8,45.5,22,0,.,.,11.69,0.00,0.00
15min,AgWx,beryljct,423,10APR2020:04:30:00,27.6,12.73,27.5,26.8,27.4,28.3,26.6,95,96,93,0.467,26.1,27.3,24.9,0,0.6,201,31,1.8,-0.00006,-0.00009,42.7,45.5,22,0,.,.,11.69,0.00,0.00
15min,AgWx,beryljct,423,10APR2020:04:45:00,27.1,12.72,27.6,27.3,27.1,27.5,26.8,95,95,95,0.477,25.8,26.3,25.4,1.491,0.1,356,18,1.5,-0.00007,-0.00011,42.6,45.4,22,0,.,.,11.69,0.00,0.00
15min,AgWx,beryljct,423,10APR2020:05:00:00,27.0,12.72,27.2,26.6,26.5,27.2,26.2,94,95,94,0.463,25.1,25.9,24.7,3.376,3.0,307,11,3.9,-0.00003,-0.00003,42.5,45.4,22,0,.,.,11.69,0.00,0.00
15min,AgWx,beryljct,423,10APR2020:05:15:00,27.0,12.71,24.2,24.9,26.7,27.3,24.9,94,95,93,0.422,25.4,26.0,23.0,1.929,2.5,298,78,4.1,-0.00003,-0.00004,42.4,45.3,22,0,.,.,11.69,0.00,0.00
15min,AgWx,beryljct,423,10APR2020:05:30:00,26.8,12.71,27.1,26.9,26.9,27.5,24.8,95,96,93,0.466,25.5,26.2,23.0,0,0.5,80,1.8,2.6,-0.00006,-0.00009,42.2,45.2,22,0,.,.,11.69,0.00,0.00
15min,AgWx,beryljct,423,10APR2020:05:45:00,26.5,12.7,27.1,26.5,26.2,27.0,25.6,94,95,93,0.464,24.7,25.4,23.9,1.776,0.9,161,2.7,1.8,-0.00005,-0.00007,42.1,45.2,22,0,.,.,11.69,0.00,0.00
15min,AgWx,beryljct,423,10APR2020:06:00:00,26.4,12.7,27.4,26.8,26.9,27.2,26.5,95,95,95,0.467,25.6,26.0,25.2,1.754,1.6,184,15,2.0,-0.00004,-0.00006,42.0,45.1,22,0,.,.,11.69,0.00,0.00
15min,AgWx,beryljct,423,10APR2020:06:15:00,26.3,12.69,27.0,26.4,26.5,27.0,25.6,94,95,93,0.461,25.1,25.7,23.9,0,0.9,200,0.1,1.8,-0.00005,-0.00008,41.9,45.1,22,0,.,.,11.69,0.00,0.00
15min,AgWx,beryljct,423,10APR2020:06:30:00,26.1,12.7,26.3,26.1,26.5,26.8,26.1,95,95,94,0.452,25.1,25.5,24.7,0,0.3,289,39,1.4,0.00001,0.00001,41.8,45.0,22,0,.,.,11.69,0.00,0.00
15min,AgWx,beryljct,423,10APR2020:06:45:00,25.8,12.69,26.4,25.6,25.3,26.1,24.9,95,96,94,0.451,24.0,24.7,23.6,0,0.8,201,75,1.9,0.00001,0.00002,41.7,44.9,22,0,.,.,11.69,0.00,0.00
15min,AgWx,beryljct,423,10APR2020:07:00:00,25.5,12.69,26.3,26.0,26.1,26.4,25.6,96,97,96,0.459,25.2,25.6,24.6,0.986,0.5,153,0.0,1.1,0.00001,0.00002,41.6,44.9,22,1,.,.,11.69,0.00,0.00
15min,AgWx,beryljct,423,10APR2020:07:15:00,25.5,12.7,26.8,26.7,26.6,27.1,25.9,96,97,96,0.471,25.7,26.2,25.0,1.447,1.2,154,0.5,1.8,0.00004,0.00005,41.5,44.8,22,8,.,.,11.69,0.00,0.00
15min,AgWx,beryljct,423,10APR2020:07:30:00,25.8,12.72,27.5,26.9,26.6,26.9,26.3,96,96,95,0.472,25.5,25.9,25.1,1.162,1.5,156,2.0,2.3,0.00014,0.00015,41.4,44.8,22,34,.,.,11.69,0.00,0.00
15min,AgWx,beryljct,423,10APR2020:07:45:00,26.1,12.74,27.8,28.2,27.4,28.2,26.7,96,96,95,0.499,26.3,27.0,25.5,0,0.4,158,0.1,1.1,0.00025,0.00027,41.2,44.7,22,61,.,.,11.69,0.00,0.00
15min,AgWx,beryljct,423,10APR2020:08:00:00,26.8,12.73,28.8,28.0,27.8,28.4,27.5,95,95,94,0.490,26.5,27.2,26.1,0.548,0.3,136,2.2,1.8,0.00036,0.00039,41.1,44.6,22,95,.,.,11.69,0.00,0.00
15min,AgWx,beryljct,423,10APR2020:08:15:00,28.1,12.77,29.0,28.6,28.2,28.8,27.6,94,95,93,0.499,26.7,27.5,26.2,0,0.2,136,0.0,1.1,0.00053,0.00056,41.0,44.6,22,148,.,.,11.69,0.00,0.00
15min,AgWx,beryljct,423,10APR2020:08:30:00,29.6,12.86,30.4,29.9,29.1,29.9,28.5,95,95,94,0.533,27.7,28.6,27.0,0.592,0.4,135,0.0,1.0,0.00070,0.00075,40.9,44.5,22,197,.,.,11.69,0.00,0.00
15min,AgWx,beryljct,423,10APR2020:08:45:00,31.6,12.99,32.1,31.8,30.9,31.9,29.9,95,95,94,0.570,29.6,30.4,28.6,0.833,0.8,133,4.3,1.5,0.00089,0.00095,40.8,44.4,22,244,.,.,11.69,0.00,0.00
15min,AgWx,beryljct,423,10APR2020:09:00:00,33.6,13.32,34.7,34.9,33.1,34.9,31.8,92,94,88,0.602,30.9,32.0,30.2,0,0.5,122,4.0,1.5,0.00123,0.00132,40.7,44.4,22,324,.,.,11.69,0.00,0.00
15min,AgWx,beryljct,423,10APR2020:09:15:00,35.9,14.05,35.0,34.9,34.7,35.1,34.5,82,87,79,0.546,29.7,31.4,28.9,1.425,1.0,335,7.9,2.7,0.00150,0.00162,40.7,44.4,22,384,.,.,11.69,0.00,0.00
15min,AgWx,beryljct,423,10APR2020:09:30:00,38.2,14.68,36.3,36.3,35.5,36.4,34.9,81,82,79,0.580,30.2,31.1,29.2,1.863,1.3,8.1,24,2.3,0.00173,0.00187,40.6,44.3,22,436,.,.,11.69,0.00,0.00
15min,AgWx,beryljct,423,10APR2020:09:45:00,40.3,14.6,37.2,37.5,36.8,37.6,36.2,79,81,78,0.593,30.9,31.6,30.3,0.745,1.4,337,21,3.0,0.00197,0.00213,40.5,44.2,22,482,.,.,11.68,0.00,0.00
15min,AgWx,beryljct,423,10APR2020:10:00:00,42.4,14.58,40.0,39.0,38.1,39.0,37.4,74,78,71,0.581,30.7,31.6,29.9,3.025,1.5,352,19,3.6,0.00217,0.00236,40.4,44.2,22,516,.,.,11.68,0.00,0.00
15min,AgWx,beryljct,423,10APR2020:10:15:00,44.4,14.6,40.1,40.3,39.9,40.5,39.0,69,72,65,0.558,30.7,31.4,29.6,1.315,1.7,1.6,31,3.7,0.00236,0.00259,40.4,44.1,22,540,.,.,11.68,0.00,0.00
15min,AgWx,beryljct,423,10APR2020:10:30:00,46.4,14.51,42.2,42.4,41.3,42.4,40.3,65,67,60,0.583,30.3,31.7,29.0,2.521,2.2,27,34,4.7,0.00262,0.00289,40.3,44.1,22,582,.,.,11.68,0.00,0.00
15min,AgWx,beryljct,423,10APR2020:10:45:00,47.8,14.49,43.9,42.9,42.2,43.0,41.7,63,65,61,0.568,30.5,31.6,29.3,2.346,2.3,20,39,5.4,0.00273,0.00303,40.3,44.0,22,597,.,.,11.68,0.00,0.00
15min,AgWx,beryljct,423,10APR2020:11:00:00,49.1,14.45,43.4,44.2,44.0,44.6,42.9,61,65,57,0.575,31.2,33.1,29.9,6.138,3.8,32,27,7.0,0.00327,0.00369,40.4,44.0,22,717,.,.,11.68,0.00,0.00
15min,AgWx,beryljct,423,10APR2020:11:15:00,50.0,14.43,45.2,45.1,44.6,45.2,44.0,57,62,55,0.599,30.5,32.9,29.2,5.59,4.3,42,23,7.1,0.00317,0.00363,40.6,43.9,22,680,.,.,11.68,0.00,0.00
15min,AgWx,beryljct,423,10APR2020:11:30:00,50.9,14.42,49.6,47.5,46.2,47.5,45.0,59,64,57,0.719,32.8,36.1,30.5,3.946,4.8,29,22,7.8,0.00366,0.00416,40.8,43.8,22,783,.,.,11.68,0.00,0.00
15min,AgWx,beryljct,423,10APR2020:11:45:00,51.5,14.03,47.5,47.6,47.2,47.9,46.4,59,65,56,0.660,33.6,36.6,32.2,6.84,6.5,33,20,9.7,0.00355,0.00413,41.1,43.8,22,753,.,.,11.68,0.00,0.00
15min,AgWx,beryljct,423,10APR2020:12:00:00,52.0,13.98,47.8,48.3,47.7,48.3,47.4,58,61,56,0.682,33.8,35.3,32.8,5.349,6.9,20,20,10.7,0.00380,0.00442,41.5,43.8,22,808,.,.,11.68,0.00,0.00
15min,AgWx,beryljct,423,10APR2020:12:15:00,52.8,13.98,51.5,49.8,48.7,49.8,47.8,58,61,56,0.686,34.7,36.9,32.9,4.56,4.6,17,27,8.0,0.00407,0.00461,41.9,43.8,22,830,.,.,11.67,0.00,0.00
15min,AgWx,beryljct,423,10APR2020:12:30:00,54.0,13.94,49.8,50.2,50.0,50.5,49.4,55,59,52,0.645,34.7,36.2,33.3,6.138,4.9,43,39,9.3,0.00434,0.00493,42.3,43.7,22,866,.,.,11.67,0.00,0.00
15min,AgWx,beryljct,423,10APR2020:12:45:00,55.2,13.93,51.4,51.4,50.9,51.8,49.9,52,55,49,0.629,33.7,35.4,32.4,3.091,3.3,357,45,6.7,0.00454,0.00509,42.8,43.7,22,878,.,.,11.67,0.00,0.00
15min,AgWx,beryljct,423,10APR2020:13:00:00,56.6,14.03,52.8,52.5,51.8,52.9,51.0,48,51,46,0.617,33.0,34.7,31.4,2.74,2.9,318,45,7.3,0.00486,0.00542,43.3,43.7,22,927,.,.,11.67,0.00,0.00
15min,AgWx,beryljct,423,10APR2020:13:15:00,57.9,13.89,54.6,53.1,52.6,53.4,52.0,47,50,44,0.614,32.7,34.4,31.1,2.368,3.5,97,48,7.7,0.00493,0.00556,43.8,43.7,22,934,.,.,11.66,0.00,0.00
15min,AgWx,beryljct,423,10APR2020:13:30:00,58.4,13.87,53.1,53.7,53.2,54.0,52.2,44,48,42,0.612,31.9,34.2,30.0,6.686,4.7,192,43,8.1,0.00501,0.00574,44.3,43.7,22,942,.,.,11.66,0.00,0.00
15min,AgWx,beryljct,423,10APR2020:13:45:00,58.7,13.87,56.8,55.2,54.2,55.3,53.1,44,47,42,0.654,32.8,35.3,30.6,1.71,3.3,191,31,5.8,0.00513,0.00578,44.9,43.7,22,944,.,.,11.66,0.00,0.00
15min,AgWx,beryljct,423,10APR2020:14:00:00,59.5,13.83,57.6,55.0,54.8,55.8,53.6,46,51,41,0.700,34.1,37.0,30.8,6.05,3.2,70,59,9.7,0.00518,0.00581,45.5,43.7,22,945,.,.,11.65,0.00,0.00
15min,AgWx,beryljct,423,10APR2020:14:15:00,60.4,13.84,55.6,54.9,54.8,55.5,54.1,45,51,40,0.591,33.9,37.8,30.7,0,4.6,70,43,9.1,0.00495,0.00568,46.1,43.7,22,911,.,.,11.66,0.00,0.00
15min,AgWx,beryljct,423,10APR2020:14:30:00,61.3,13.82,53.9,54.5,55.0,56.1,54.1,43,47,39,0.635,33.1,35.9,31.1,2.126,2.7,141,35,6.6,0.00407,0.00460,46.7,43.8,22,721,.,.,11.66,0.00,0.00
15min,AgWx,beryljct,423,10APR2020:14:45:00,61.1,13.86,55.2,54.4,54.7,55.2,54.3,42,46,38,0.561,32.1,34.8,29.4,2.324,2.2,87,63,4.8,0.00245,0.00285,47.3,43.8,22,394,.,.,11.65,0.00,0.00
15min,AgWx,beryljct,423,10APR2020:15:00:00,60.3,13.84,54.2,54.6,54.6,54.9,54.1,41,44,38,0.608,31.2,33.2,29.3,2.653,2.4,76,76,5.8,0.00211,0.00250,47.8,43.9,22,325,.,.,11.65,0.00,0.00
15min,AgWx,beryljct,423,10APR2020:15:15:00,59.9,13.83,55.2,55.3,55.1,55.7,54.5,41,45,38,0.578,31.9,34.7,29.9,3.508,3.4,133,78,6.4,0.00321,0.00376,48.3,44.0,22,559,.,.,11.65,0.00,0.00
15min,AgWx,beryljct,423,10APR2020:15:30:00,61.4,13.81,55.1,55.3,56.0,56.9,55.1,41,44,39,0.583,32.5,34.8,30.7,0.855,3.6,313,44,7.7,0.00405,0.00468,48.8,44.1,22,728,.,.,11.65,0.00,0.00
15min,AgWx,beryljct,423,10APR2020:15:45:00,62.9,13.79,59.7,58.3,56.9,58.6,55.3,40,42,38,0.654,32.9,35.3,30.8,9.78,4.4,208,94,11.8,0.00515,0.00593,49.1,44.2,22,912,.,.,11.65,0.00,0.00
15min,AgWx,beryljct,423,10APR2020:16:00:00,64.2,13.71,56.5,57.3,58.0,58.8,57.3,42,47,38,0.644,34.9,38.3,32.2,4.582,8.1,173,30,14.3,0.00487,0.00593,49.4,44.3,22,841,.,.,11.65,0.00,0.00
15min,AgWx,beryljct,423,10APR2020:16:15:00,63.8,13.76,58.0,57.8,56.9,57.9,56.0,41,46,38,0.670,33.4,35.4,31.1,9.05,7.1,181,20,13.0,0.00297,0.00383,49.8,44.4,22,472,.,.,11.65,0.00,0.00
15min,AgWx,beryljct,423,10APR2020:16:30:00,62.4,13.83,55.8,55.3,56.3,58.1,55.2,40,42,38,0.592,32.5,35.2,30.5,6.05,5.1,195,30,8.8,0.00174,0.00237,50.1,44.5,22,196,.,.,11.65,0.00,0.00
15min,AgWx,beryljct,423,10APR2020:16:45:00,60.8,13.89,57.7,57.9,56.5,57.9,55.3,40,44,38,0.647,32.6,35.0,30.2,12.76,7.7,207,22,16.2,0.00266,0.00354,50.4,44.6,22,420,.,.,11.65,0.00,0.00
15min,AgWx,beryljct,423,10APR2020:17:00:00,61.2,13.78,58.2,57.7,57.5,58.0,56.7,38,40,36,0.621,32.1,33.6,30.3,6.818,8.0,207,22,13.1,0.00372,0.00474,50.6,44.7,22,618,.,.,11.65,0.00,0.00
15min,AgWx,beryljct,423,10APR2020:17:15:00,62.2,13.75,58.6,57.6,57.6,58.2,57.0,37,40,34,0.544,31.5,33.6,29.2,1.798,6.9,188,28,12.4,0.00376,0.00471,50.8,44.9,22,630,.,.,11.65,0.00,0.00
15min,AgWx,beryljct,423,10APR2020:17:30:00,63.2,13.72,57.2,57.8,57.9,58.6,57.3,36,39,33,0.557,31.0,33.3,28.6,7.278,5.9,179,18,11.6,0.00352,0.00438,51.0,45.0,22,590,.,.,11.65,0.00,0.00
15min,AgWx,beryljct,423,10APR2020:17:45:00,63.5,13.73,58.8,58.2,57.6,58.2,57.2,35,38,33,0.596,30.1,32.7,28.3,6.007,4.8,193,23,9.3,0.00293,0.00367,51.1,45.1,22,498,.,.,11.64,0.00,0.00
15min,AgWx,beryljct,423,10APR2020:18:00:00,63.3,13.62,57.3,57.2,57.5,58.6,57.1,36,38,33,0.546,30.5,33.0,28.4,5.108,7.2,215,16,10.8,0.00280,0.00373,51.2,45.3,22,439,.,.,11.64,0.00,0.00
15min,AgWx,beryljct,423,10APR2020:18:15:00,62.1,13.75,57.1,57.2,56.8,57.5,55.9,36,39,33,0.593,30.1,32.6,27.6,5.831,5.6,208,20,10.7,0.00189,0.00261,51.4,45.4,22,309,.,.,11.65,0.00,0.00
15min,AgWx,beryljct,423,10APR2020:18:30:00,61.6,13.79,57.3,57.5,57.0,57.6,56.7,35,41,32,0.647,29.9,34.2,27.5,4.845,4.0,228,16,6.3,0.00190,0.00247,51.5,45.5,22,333,.,.,11.65,0.00,0.00
15min,AgWx,beryljct,423,10APR2020:18:45:00,61.1,13.77,56.0,56.4,56.9,57.5,56.4,37,40,35,0.560,31.1,33.1,29.5,2.105,5.2,206,24,9.6,0.00167,0.00233,51.5,45.6,22,273,.,.,11.65,0.00,0.00
15min,AgWx,beryljct,423,10APR2020:19:00:00,60.4,13.8,55.9,56.0,56.3,56.6,56.0,39,43,36,0.596,31.9,34.4,29.7,6.971,6.9,204,9.2,9.7,0.00156,0.00232,51.6,45.8,22,229,.,.,11.65,0.00,0.00
15min,AgWx,beryljct,423,10APR2020:19:15:00,59.4,13.26,54.9,55.1,55.6,56.1,55.1,43,46,39,0.686,33.3,34.9,31.5,5.305,7.3,208,9.7,10.7,0.00071,0.00089,51.6,45.9,22,183,.,.,11.65,0.00,0.00
15min,AgWx,beryljct,423,10APR2020:19:30:00,58.3,13.17,54.5,54.3,54.8,55.1,54.3,45,47,43,0.679,33.7,34.9,32.7,6.423,5.8,217,9.4,8.3,0.00054,0.00070,51.6,46.0,22,136,.,.,11.65,0.00,0.00
15min,AgWx,beryljct,423,10APR2020:19:45:00,56.9,13.14,52.7,52.9,53.7,54.4,52.9,46,49,43,0.657,33.5,34.4,32.4,5.239,5.9,228,8.1,7.8,0.00043,0.00056,51.5,46.1,22,86,.,.,11.66,0.00,0.00
15min,AgWx,beryljct,423,10APR2020:20:00:00,55.1,13.08,50.7,50.6,51.8,52.9,50.6,50,53,48,0.649,34.0,34.4,33.5,5.217,4.8,222,6.6,5.7,0.00020,0.00029,51.5,46.2,22,20,.,.,11.66,0.00,0.00
15min,AgWx,beryljct,423,10APR2020:20:15:00,53.1,13.07,49.4,49.5,50.0,50.8,49.3,54,56,51,0.658,34.0,34.3,33.2,5.261,5.0,234,3.6,5.6,0.00015,0.00023,51.3,46.3,22,7,.,.,11.66,0.00,0.00
15min,AgWx,beryljct,423,10APR2020:20:30:00,51.1,13.05,49.2,48.4,48.8,49.5,47.6,56,59,55,0.645,33.7,34.1,33.3,5.59,4.7,243,13,5.6,0.00011,0.00017,51.2,46.4,22,1,.,.,11.66,0.00,0.00
15min,AgWx,beryljct,423,10APR2020:20:45:00,49.6,13.03,45.8,46.9,47.9,48.9,46.9,56,59,53,0.641,33.1,33.4,32.5,3.508,4.2,252,5.9,6.1,0.00007,0.00013,51.1,46.5,22,0,.,.,11.67,0.00,0.00
15min,AgWx,beryljct,423,10APR2020:21:00:00,47.8,13.03,43.5,43.8,44.7,46.8,43.8,64,66,59,0.641,33.4,33.7,32.8,0.921,2.2,190,28,5.5,-0.00009,-0.00010,50.9,46.5,22,0,.,.,11.67,0.00,0.00
15min,AgWx,beryljct,423,10APR2020:21:15:00,46.2,13,42.6,42.9,43.4,45.2,42.0,68,74,62,0.655,33.7,34.5,32.5,5.48,4.0,164,24,5.6,-0.00001,0.00001,50.7,46.6,22,0,.,.,11.67,0.00,0.00
15min,AgWx,beryljct,423,10APR2020:21:30:00,45.0,13,41.7,42.1,43.0,43.4,42.1,70,72,69,0.658,33.9,34.2,33.6,6.314,5.6,166,6.6,7.3,0.00004,0.00007,50.5,46.7,22,0,.,.,11.67,0.01,0.00
15min,AgWx,beryljct,423,10APR2020:21:45:00,44.0,13,42.6,41.7,42.1,43.0,41.7,72,74,70,0.653,33.9,34.2,33.5,2.28,4.3,196,22,7.4,-0.00001,0.00001,50.3,46.7,22,0,.,.,11.68,0.00,0.00
15min,AgWx,beryljct,423,10APR2020:22:00:00,43.1,12.99,39.8,39.7,41.3,42.3,39.6,74,79,72,0.652,33.8,34.2,33.3,3.595,2.3,297,26,5.2,-0.00011,-0.00013,50.0,46.8,22,0,.,.,11.68,0.00,0.00
15min,AgWx,beryljct,423,10APR2020:22:15:00,42.1,12.98,37.8,37.3,39.1,40.7,37.2,78,83,75,0.624,32.7,34.0,31.6,2.499,2.1,348,67,4.5,-0.00012,-0.00015,49.8,46.9,22,0,.,.,11.68,0.00,0.00
15min,AgWx,beryljct,423,10APR2020:22:30:00,40.9,12.97,39.6,38.9,38.9,41.0,37.4,80,84,73,0.648,33.1,34.2,31.5,3.288,3.4,139,31,4.8,-0.00007,-0.00008,49.5,46.9,22,0,.,.,11.68,0.00,0.00
15min,AgWx,beryljct,423,10APR2020:22:45:00,40.4,12.94,42.4,41.9,40.6,42.0,39.0,75,81,70,0.632,33.2,34.3,31.3,3.332,3.7,190,24,6.2,-0.00005,-0.00004,49.3,46.9,22,0,.,.,11.68,0.00,0.00
15min,AgWx,beryljct,423,10APR2020:23:00:00,40.2,12.95,38.9,39.2,40.9,41.9,39.2,71,76,69,0.600,32.4,33.7,31.3,2.126,1.6,151,43,3.1,-0.00015,-0.00019,49.1,47.0,22,0,.,.,11.68,0.00,0.00
15min,AgWx,beryljct,423,10APR2020:23:15:00,39.7,12.94,34.1,35.9,37.7,39.3,35.9,78,82,74,0.579,31.6,32.3,30.7,2.565,2.1,121,36,5.2,-0.00013,-0.00016,48.8,47.0,22,0,.,.,11.68,0.00,0.00
15min,AgWx,beryljct,423,10APR2020:23:30:00,38.9,12.94,35.5,36.0,36.2,36.8,35.6,84,86,81,0.612,31.9,32.9,30.3,3.968,3.3,159,20,5.2,-0.00009,-0.00011,48.6,47.0,22,0,.,.,11.69,0.00,0.00
15min,AgWx,bigpiney,439,10APR2020:00:00:00,35.4,12.68,27.3,27.9,28.9,29.4,27.9,73,77,70,0.396,21.3,21.6,20.8,1.425,2.3,238,27,4.3,-0.00009,-0.00010,31.7,31.8,16,0,0,0.0,6.07,0.00,0.00
15min,AgWx,bigpiney,439,10APR2020:00:15:00,34.6,12.66,29.3,29.3,26.5,29.3,24.8,77,81,68,0.372,20.2,21.6,18.9,0,1.9,197,45,4.9,-0.00011,-0.00013,31.7,31.8,16,0,0,0.0,6.07,0.00,0.00
15min,AgWx,bigpiney,439,10APR2020:00:30:00,33.6,12.65,30.9,29.9,29.2,30.0,28.2,69,71,67,0.383,20.2,20.9,19.3,3.661,2.4,267,13,5.2,-0.00008,-0.00009,31.7,31.8,16,0,0,0.0,6.07,0.00,0.00
15min,AgWx,bigpiney,439,10APR2020:00:45:00,33.0,12.65,30.8,30.3,30.8,32.4,29.8,65,68,62,0.378,20.6,21.0,19.8,4.626,3.4,292,17,4.6,-0.00003,-0.00002,31.7,31.8,16,0,0,0.0,6.07,0.00,0.00
15min,AgWx,bigpiney,439,10APR2020:01:00:00,32.6,12.64,29.1,29.0,29.9,30.5,29.0,67,68,66,0.367,20.2,20.6,19.6,4.976,5.0,299,7.5,6.0,0.00002,0.00004,31.7,31.9,16,0,0,0.0,6.07,0.00,0.00
15min,AgWx,bigpiney,439,10APR2020:01:15:00,32.4,12.63,29.5,29.3,28.9,29.4,28.4,70,71,68,0.374,20.3,20.6,19.8,3.617,2.8,284,22,5.6,-0.00006,-0.00006,31.7,31.8,16,0,0,0.0,6.07,0.00,0.00
15min,AgWx,bigpiney,439,10APR2020:01:30:00,32.2,12.62,31.7,31.4,30.1,31.4,28.6,66,69,62,0.370,20.1,20.5,19.3,5.809,6.4,301,4.0,8.4,0.00005,0.00008,31.7,31.8,16,0,0,0.0,6.07,0.00,0.00
15min,AgWx,bigpiney,439,10APR2020:01:45:00,32.3,12.62,28.5,28.4,30.4,31.7,28.1,65,71,61,0.365,19.9,20.4,19.6,5.853,5.7,264,29,7.1,0.00005,0.00007,31.7,31.8,16,0,0,0.0,6.07,0.00,0.00
15min,AgWx,bigpiney,439,10APR2020:02:00:00,32.3,12.61,31.1,30.7,29.3,30.7,28.3,67,70,61,0.352,19.7,20.1,18.8,4.867,4.4,251,5.6,6.4,0.00000,0.00002,31.7,31.9,16,0,0,0.0,6.07,0.00,0.00
15min,AgWx,bigpiney,439,10APR2020:02:15:00,32.1,12.59,26.3,26.2,27.9,30.9,26.2,69,74,61,0.354,19.1,19.7,17.7,6.248,6.0,218,7.9,7.7,0.00003,0.00005,31.7,31.9,16,0,0,0.0,6.07,0.00,0.00
15min,AgWx,bigpiney,439,10APR2020:02:30:00,31.8,12.59,28.4,28.2,27.7,28.5,26.2,72,74,70,0.367,19.9,20.3,19.0,3.332,4.5,243,29,7.4,-0.00001,-0.00000,31.7,31.9,16,0,0,0.0,6.07,0.00,0.00
15min,AgWx,bigpiney,439,10APR2020:02:45:00,31.5,12.59,25.7,25.1,26.9,28.6,25.1,72,77,68,0.353,19.1,20.0,18.0,8.26,4.7,216,24,8.3,-0.00001,-0.00000,31.7,31.8,16,0,0,0.0,6.07,0.00,0.00
15min,AgWx,bigpiney,439,10APR2020:03:00:00,31.0,12.57,25.9,25.4,25.3,25.8,24.8,77,78,77,0.363,19.2,19.6,18.9,4.582,5.4,215,7.3,7.7,-0.00001,-0.00000,31.7,31.8,16,0,0,0.0,6.07,0.00,0.00
15min,AgWx,bigpiney,439,10APR2020:03:15:00,30.5,12.57,25.0,24.7,25.0,25.6,24.1,78,81,76,0.353,19.1,19.6,18.5,1.885,2.5,166,62,5.1,-0.00008,-0.00009,31.7,31.9,16,0,0,0.0,6.07,0.00,0.00
15min,AgWx,bigpiney,439,10APR2020:03:30:00,30.0,12.55,24.8,24.2,23.8,24.7,23.0,80,83,78,0.366,18.6,19.8,17.7,3.551,2.1,193,41,4.0,-0.00010,-0.00012,31.7,31.8,16,0,0,0.0,6.07,0.00,0.00
15min,AgWx,bigpiney,439,10APR2020:03:45:00,29.4,12.54,23.6,22.9,23.6,24.4,22.9,83,84,81,0.350,19.1,19.8,18.5,2.28,2.2,281,33,4.1,-0.00010,-0.00012,31.7,31.8,16,0,0,0.0,6.07,0.00,0.00
15min,AgWx,bigpiney,439,10APR2020:04:00:00,28.8,12.53,24.4,23.6,23.3,23.6,22.9,83,84,81,0.352,18.8,19.1,18.4,2.192,1.9,264,21,3.1,-0.00011,-0.00013,31.7,31.8,16,0,0,0.0,6.07,0.00,0.00
15min,AgWx,bigpiney,439,10APR2020:04:15:00,28.3,12.52,24.9,24.6,23.9,24.6,23.4,81,82,79,0.353,18.7,19.1,18.1,3.398,2.6,254,17,3.9,-0.00008,-0.00010,31.7,31.8,16,0,0,0.0,6.07,0.00,0.00
15min,AgWx,bigpiney,439,10APR2020:04:30:00,28.0,12.51,28.5,27.9,26.2,27.9,24.5,74,79,69,0.356,19.0,19.4,18.4,2.28,2.9,274,16,4.3,-0.00006,-0.00007,31.7,31.8,16,0,0,0.0,6.07,0.00,0.00
15min,AgWx,bigpiney,439,10APR2020:04:45:00,27.8,12.5,27.7,27.0,26.7,28.2,25.5,71,74,68,0.345,18.6,19.1,17.8,1.885,1.7,252,32,3.5,-0.00011,-0.00013,31.7,31.8,16,0,0,0.0,6.07,0.00,0.00
15min,AgWx,bigpiney,439,10APR2020:05:00:00,27.6,12.49,23.4,23.3,24.4,27.2,22.9,75,80,68,0.338,17.5,18.4,16.4,4.428,3.6,216,11,4.8,-0.00004,-0.00004,31.7,31.9,16,0,0,0.0,6.07,0.00,0.00
15min,AgWx,bigpiney,439,10APR2020:05:15:00,27.3,12.47,30.5,30.0,26.4,30.0,23.2,71,80,62,0.349,18.3,19.7,17.4,0,1.6,252,21,4.5,-0.00011,-0.00014,31.7,31.8,16,0,0,0.0,6.07,0.00,0.00
15min,AgWx,bigpiney,439,10APR2020:05:30:00,27.1,12.46,30.7,30.0,29.7,30.4,28.5,62,64,61,0.349,18.3,18.7,17.5,0,0.2,229,3.6,1.2,-0.00023,-0.00036,31.7,31.9,16,0,0,0.0,6.07,0.00,0.00
15min,AgWx,bigpiney,439,10APR2020:05:45:00,27.3,12.46,29.3,27.5,28.0,30.2,26.2,66,70,61,0.331,17.9,18.6,16.8,2.017,2.6,234,13,4.2,-0.00006,-0.00006,31.7,31.8,16,0,0,0.0,6.07,0.00,0.00
15min,AgWx,bigpiney,439,10APR2020:06:00:00,27.2,12.44,23.2,23.3,26.5,30.2,23.2,69,79,60,0.338,17.5,18.7,15.7,2.828,3.0,221,9.8,4.6,-0.00004,-0.00004,31.7,31.9,16,0,0,0.0,6.07,0.00,0.00
15min,AgWx,bigpiney,439,10APR2020:06:15:00,26.9,12.43,29.6,28.5,26.0,29.0,23.2,72,79,64,0.347,18.2,19.9,17.1,1.381,2.4,255,20,4.2,-0.00008,-0.00009,31.7,31.9,16,0,0,0.0,6.07,0.00,0.00
15min,AgWx,bigpiney,439,10APR2020:06:30:00,26.7,12.41,27.2,26.6,27.4,30.5,25.4,67,72,61,0.339,17.9,19.0,16.7,3.003,2.3,254,35,4.5,-0.00007,-0.00008,31.7,31.9,16,0,0,0.0,6.07,0.00,0.00
15min,AgWx,bigpiney,439,10APR2020:06:45:00,26.6,12.4,24.0,24.0,24.9,27.5,23.4,73,79,67,0.342,17.6,18.3,16.5,4.735,4.3,225,9.7,5.7,-0.00002,-0.00001,31.7,31.8,16,2,0,0.0,6.07,0.00,0.00
15min,AgWx,bigpiney,439,10APR2020:07:00:00,26.5,12.41,23.1,23.0,23.6,24.0,23.0,79,80,77,0.337,18.0,18.6,17.5,2.85,4.2,223,8.8,6.0,-0.00003,-0.00002,31.7,31.9,16,12,0,0.0,6.07,0.00,0.00
15min,AgWx,bigpiney,439,10APR2020:07:15:00,26.5,12.41,22.3,22.6,23.3,23.9,22.6,82,83,80,0.343,18.5,19.1,17.8,3.376,3.4,199,21,4.9,-0.00011,-0.00006,31.7,31.8,16,41,0,0.0,6.07,0.00,0.00
15min,AgWx,bigpiney,439,10APR2020:07:30:00,26.7,12.46,26.7,26.0,24.1,26.0,22.2,83,85,79,0.377,19.5,20.5,18.0,0,3.0,182,16,4.4,-0.00001,0.00003,31.7,31.9,16,74,0,0.0,6.07,0.00,0.00
15min,AgWx,bigpiney,439,10APR2020:07:45:00,27.4,12.47,27.3,27.0,26.4,27.0,25.8,83,85,79,0.419,21.9,22.9,20.5,1.271,1.6,236,72,4.7,0.00009,0.00013,31.7,31.9,16,113,0,0.0,6.07,0.00,0.00
15min,AgWx,bigpiney,439,10APR2020:08:00:00,28.5,12.6,29.6,28.8,27.5,28.8,26.6,82,84,79,0.424,22.9,23.7,21.9,0.767,0.6,9.8,43,2.5,0.00025,0.00028,31.7,31.9,16,156,0,0.0,6.07,0.00,0.00
15min,AgWx,bigpiney,439,10APR2020:08:15:00,29.7,12.91,31.8,31.3,30.1,31.3,28.9,76,81,71,0.436,23.5,24.5,22.0,0,1.1,211,12,2.7,0.00048,0.00054,31.7,31.8,16,201,0,0.0,6.07,0.00,0.00